Time,TemperatureF,DewpointF,PressureIn,WindDirection,WindDirectionDegrees,WindSpeedMPH,WindSpeedGustMPH,Humidity,HourlyPrecipIn,Conditions,Clouds,dailyrainin,SoftwareType,DateUTC
2013-02-28 06:10:00,29.4,26.6,29.65,West,280,1.0,1.0,89,0.00,,,0.00,Wunderground v.1.15,2013-02-28 11:10:00,
2013-02-28 06:15:00,29.4,26.6,29.65,West,259,1.0,3.0,89,0.00,,,0.00,Wunderground v.1.15,2013-02-28 11:15:00,
2013-02-28 06:20:00,29.3,26.5,29.65,WNW,283,1.0,1.0,89,0.00,,,0.00,Wunderground v.1.15,2013-02-28 11:20:00,
2013-02-28 06:30:00,29.3,26.7,29.65,West,271,2.0,2.0,90,0.00,,,0.00,Wunderground v.1.15,2013-02-28 11:30:00,
2013-02-28 06:40:00,29.2,26.6,29.65,West,271,1.0,1.0,90,0.00,,,0.00,Wunderground v.1.15,2013-02-28 11:40:00,
2013-02-28 06:45:00,29.2,26.6,29.65,WNW,301,1.0,2.0,90,0.00,,,0.00,Wunderground v.1.15,2013-02-28 11:45:00,
2013-02-28 06:50:00,29.2,26.6,29.65,SW,222,1.0,2.0,90,0.00,,,0.00,Wunderground v.1.15,2013-02-28 11:50:00,
2013-02-28 07:00:00,29.2,26.6,29.65,WSW,240,2.0,2.0,90,0.00,,,0.00,Wunderground v.1.15,2013-02-28 12:00:00,
2013-02-28 07:10:00,29.3,26.5,29.65,WNW,293,2.0,10.0,89,0.00,,,0.00,Wunderground v.1.15,2013-02-28 12:10:00,
2013-02-28 07:20:00,29.4,26.6,29.65,West,266,2.0,10.0,89,0.00,,,0.00,Wunderground v.1.15,2013-02-28 12:20:00,
2013-02-28 07:30:00,29.5,26.7,29.65,WNW,300,2.0,10.0,89,0.00,,,0.00,Wunderground v.1.15,2013-02-28 12:30:00,
2013-02-28 07:40:00,29.7,26.6,29.65,WSW,250,3.0,3.0,88,0.00,,,0.00,Wunderground v.1.15,2013-02-28 12:40:00,
2013-02-28 07:50:00,29.8,26.4,29.65,NW,307,3.0,3.0,87,0.00,,,0.00,Wunderground v.1.15,2013-02-28 12:50:00,
2013-02-28 08:00:00,30.0,26.6,29.65,WSW,257,3.0,3.0,87,0.00,,,0.00,Wunderground v.1.15,2013-02-28 13:00:00,
2013-02-28 08:10:00,30.1,26.7,29.66,SSW,211,1.0,1.0,87,0.00,,,0.00,Wunderground v.1.15,2013-02-28 13:10:00,
2013-02-28 08:20:00,30.3,26.9,29.66,West,277,1.0,3.0,87,0.00,,,0.00,Wunderground v.1.15,2013-02-28 13:20:00,
2013-02-28 08:30:00,30.1,26.7,29.66,WNW,291,2.0,3.0,87,0.00,,,0.00,Wunderground v.1.15,2013-02-28 13:30:00,
2013-02-28 08:40:00,30.0,27.2,29.67,NW,309,3.0,3.0,89,0.00,,,0.00,Wunderground v.1.15,2013-02-28 13:40:00,
2013-02-28 08:50:00,30.1,27.3,29.67,WNW,284,2.0,4.0,89,0.00,,,0.00,Wunderground v.1.15,2013-02-28 13:50:00,
2013-02-28 09:00:00,30.2,27.1,29.67,West,262,3.0,5.0,88,0.00,,,0.00,Wunderground v.1.15,2013-02-28 14:00:00,
2013-02-28 09:10:00,30.7,27.0,29.67,WSW,249,5.0,5.0,86,0.00,,,0.00,Wunderground v.1.15,2013-02-28 14:10:00,
2013-02-28 09:20:00,31.8,26.9,29.66,NW,315,5.0,8.0,82,0.00,,,0.00,Wunderground v.1.15,2013-02-28 14:20:00,
2013-02-28 09:30:00,31.8,26.6,29.66,NW,319,7.0,7.0,81,0.00,,,0.00,Wunderground v.1.15,2013-02-28 14:30:00,
2013-02-28 09:40:00,32.4,26.9,29.67,WSW,256,5.0,5.0,80,0.00,,,0.00,Wunderground v.1.15,2013-02-28 14:40:00,
2013-02-28 09:50:00,32.9,27.4,29.67,NW,309,6.0,8.0,80,0.00,,,0.00,Wunderground v.1.15,2013-02-28 14:50:00,
2013-02-28 10:00:00,32.8,26.1,29.67,WSW,250,7.0,12.0,76,0.00,,,0.00,Wunderground v.1.15,2013-02-28 15:00:00,
2013-02-28 10:10:00,32.5,26.1,29.67,WNW,295,7.0,8.0,77,0.00,,,0.00,Wunderground v.1.15,2013-02-28 15:10:00,
2013-02-28 10:20:00,31.6,26.1,29.67,WSW,248,5.0,5.0,80,0.00,,,0.00,Wunderground v.1.15,2013-02-28 15:20:00,
2013-02-28 10:30:00,31.3,26.4,29.67,WNW,303,4.0,6.0,82,0.00,,,0.00,Wunderground v.1.15,2013-02-28 15:30:00,
2013-02-28 10:40:00,31.4,26.2,29.67,West,260,6.0,6.0,81,0.00,,,0.00,Wunderground v.1.15,2013-02-28 15:40:00,
2013-02-28 10:50:00,32.2,26.7,29.68,WNW,291,6.0,6.0,80,0.00,,,0.00,Wunderground v.1.15,2013-02-28 15:50:00,
2013-02-28 11:00:00,32.1,26.3,29.68,West,280,6.0,8.0,79,0.00,,,0.00,Wunderground v.1.15,2013-02-28 16:00:00,
2013-02-28 11:10:00,32.7,26.9,29.68,West,280,7.0,21.0,79,0.00,,,0.00,Wunderground v.1.15,2013-02-28 16:10:00,
2013-02-28 11:20:00,32.8,25.7,29.68,WNW,294,7.0,21.0,75,0.00,,,0.00,Wunderground v.1.15,2013-02-28 16:20:00,
2013-02-28 11:30:00,33.0,25.9,29.68,WSW,252,6.0,6.0,75,0.00,,,0.00,Wunderground v.1.15,2013-02-28 16:30:00,
2013-02-28 11:40:00,33.6,25.9,29.68,WSW,245,6.0,6.0,73,0.00,,,0.00,Wunderground v.1.15,2013-02-28 16:40:00,
2013-02-28 11:55:00,33.3,25.9,29.68,NW,306,5.0,21.0,74,0.00,,,0.00,Wunderground v.1.15,2013-02-28 16:55:00,
2013-02-28 12:00:00,33.3,25.6,29.68,WNW,294,6.0,6.0,73,0.00,,,0.00,Wunderground v.1.15,2013-02-28 17:00:00,
2013-02-28 12:10:00,32.5,25.1,29.68,WNW,300,7.0,7.0,74,0.00,,,0.00,Wunderground v.1.15,2013-02-28 17:10:00,
2013-02-28 12:20:00,33.0,25.9,29.67,West,278,6.0,6.0,75,0.00,,,0.00,Wunderground v.1.15,2013-02-28 17:20:00,
2013-02-28 12:30:00,33.8,26.1,29.67,WNW,300,7.0,10.0,73,0.00,,,0.00,Wunderground v.1.15,2013-02-28 17:30:00,
2013-02-28 12:40:00,33.2,25.1,29.67,NW,308,7.0,7.0,72,0.00,,,0.00,Wunderground v.1.15,2013-02-28 17:40:00,
2013-02-28 12:50:00,33.4,25.0,29.67,WNW,296,8.0,8.0,71,0.00,,,0.00,Wunderground v.1.15,2013-02-28 17:50:00,
2013-02-28 13:00:00,33.2,23.8,29.67,NW,315,7.0,8.0,68,0.00,,,0.00,Wunderground v.1.15,2013-02-28 18:00:00,
2013-02-28 13:10:00,33.2,24.1,29.68,WNW,297,8.0,8.0,69,0.00,,,0.00,Wunderground v.1.15,2013-02-28 18:10:00,
2013-02-28 13:20:00,33.6,24.9,29.67,WNW,302,8.0,15.0,70,0.00,,,0.00,Wunderground v.1.15,2013-02-28 18:20:00,
2013-02-28 13:30:00,33.3,23.9,29.67,West,276,7.0,15.0,68,0.00,,,0.00,Wunderground v.1.15,2013-02-28 18:30:00,
2013-02-28 13:40:00,33.5,24.8,29.67,WNW,287,6.0,15.0,70,0.00,,,0.00,Wunderground v.1.15,2013-02-28 18:40:00,
2013-02-28 13:50:00,33.5,24.4,29.67,WNW,286,7.0,15.0,69,0.00,,,0.00,Wunderground v.1.15,2013-02-28 18:50:00,
2013-02-28 14:00:00,33.9,25.1,29.67,WSW,243,7.0,15.0,70,0.00,,,0.00,Wunderground v.1.15,2013-02-28 19:00:00,
2013-02-28 14:10:00,33.5,24.8,29.67,NW,322,6.0,6.0,70,0.00,,,0.00,Wunderground v.1.15,2013-02-28 19:10:00,
2013-02-28 14:20:00,33.7,25.0,29.67,WNW,302,6.0,7.0,70,0.00,,,0.00,Wunderground v.1.15,2013-02-28 19:20:00,
2013-02-28 14:40:00,32.7,24.7,29.68,WNW,298,7.0,7.0,72,0.00,,,0.00,Wunderground v.1.15,2013-02-28 19:40:00,
2013-02-28 14:50:00,32.8,24.8,29.68,WNW,295,6.0,10.0,72,0.00,,,0.00,Wunderground v.1.15,2013-02-28 19:50:00,
2013-02-28 15:00:00,32.8,25.1,29.68,NW,312,5.0,5.0,73,0.00,,,0.00,Wunderground v.1.15,2013-02-28 20:00:00,
2013-02-28 15:10:00,32.8,24.8,29.68,NW,304,5.0,18.0,72,0.00,,,0.00,Wunderground v.1.15,2013-02-28 20:10:00,
2013-02-28 15:20:00,32.6,24.9,29.69,WNW,290,6.0,6.0,73,0.00,,,0.00,Wunderground v.1.15,2013-02-28 20:20:00,
2013-02-28 15:30:00,32.3,25.3,29.69,WNW,300,5.0,5.0,75,0.00,,,0.00,Wunderground v.1.15,2013-02-28 20:30:00,
2013-02-28 15:40:00,32.1,25.1,29.69,NW,304,4.0,18.0,75,0.00,,,0.00,Wunderground v.1.15,2013-02-28 20:40:00,
2013-02-28 15:50:00,31.8,25.1,29.69,WNW,293,5.0,18.0,76,0.00,,,0.00,Wunderground v.1.15,2013-02-28 20:50:00,
2013-02-28 16:00:00,31.6,25.2,29.69,WNW,295,5.0,18.0,77,0.00,,,0.00,Wunderground v.1.15,2013-02-28 21:00:00,
2013-02-28 16:10:00,31.4,25.0,29.69,WNW,288,5.0,5.0,77,0.00,,,0.00,Wunderground v.1.15,2013-02-28 21:10:00,
2013-02-28 16:20:00,31.3,25.2,29.69,West,269,6.0,8.0,78,0.00,,,0.00,Wunderground v.1.15,2013-02-28 21:20:00,
2013-02-28 16:30:00,31.2,25.1,29.69,NW,314,5.0,5.0,78,0.00,,,0.00,Wunderground v.1.15,2013-02-28 21:30:00,
2013-02-28 16:40:00,31.1,25.0,29.69,West,274,5.0,5.0,78,0.00,,,0.00,Wunderground v.1.15,2013-02-28 21:40:00,
2013-02-28 16:50:00,31.1,25.3,29.70,NW,304,5.0,5.0,79,0.00,,,0.00,Wunderground v.1.15,2013-02-28 21:50:00,